Meriden, CT

7:08 AM EDT on September 25, 2017 (GMT -0400)
Meriden Markham Municipal

Weather History for KMMK - December, 2012

Change the Weather History Date:

Tuesday, December 25, 2012

  Actual Average (KOXC) Record (KOXC)
Temperature  
Mean Temperature 32 °F -  
Max Temperature 37 °F 34 °F 62 °F (2015)
Min Temperature 28 °F 21 °F 6 °F (1998)
Degree Days  
Heating Degree Days 32    
Moisture  
Dew Point 27 °F    
Average Humidity 84    
Maximum Humidity 93    
Minimum Humidity 65    
Precipitation  
Precipitation 0.02 in - - ()
Sea Level Pressure  
Sea Level Pressure 30.04 in    
Wind  
Wind Speed 6 mph (North)    
Max Wind Speed 14 mph    
Max Gust Speed 21 mph    
Visibility 7 miles    
Events Rain , Snow    
Averages and records for this station are not official NWS values.
T = Trace of Precipitation, MM = Missing Value Source: NWS Daily Summary

Daily Weather History Graph

Daily Weather History Graph

Search for Another Location

Airport or City:

Trip Planner

Search our weather history database for the weather conditions in past years. The results will help you decide how hot, cold, wet, or windy it might be!

Date:

Astronomy

Dec. 25, 2012 Rise Set
Actual Time 7:16 AM EST 4:27 PM EST
Civil Twilight 6:44 AM EST 4:58 PM EST
Nautical Twilight 6:09 AM EST 5:33 PM EST
Astronomical Twilight 5:36 AM EST 6:07 PM EST
Moon 2:33 PM EST 4:45 AM EST
Length of Visible Light 10h 13m
Length of Day
9h 10m
Waxing Gibbous, 93% of the Moon is Illuminated
Dec 25
Waxing Gibbous
Dec 28
Full
Jan 4
Last Quarter
Jan 11
New
Jan 18
First Quarter

Hourly Weather History & Observations

Time (EST) Temp. Windchill Dew Point Humidity Pressure Visibility Wind Dir Wind Speed Gust Speed Precip Events Conditions
12:07 AM 30.2 °F 26.7 °F 28.4 °F 93% 29.98 in 2.0 mi NNE 3.5 mph - 0.00 in Snow Light Snow
12:21 AM 30.2 °F 26.7 °F 28.4 °F 93% 29.97 in 4.0 mi NNE 3.5 mph - 0.00 in Snow Light Snow
12:53 AM 30.9 °F 27.5 °F 28.0 °F 89% 29.97 in 8.0 mi North 3.5 mph - 0.00 in   Overcast
1:07 AM 30.2 °F 25.4 °F 28.4 °F 93% 29.96 in 4.0 mi North 4.6 mph - 0.00 in Snow Light Snow
1:23 AM 30.2 °F 26.7 °F 28.4 °F 93% 29.96 in 2.5 mi North 3.5 mph - 0.00 in Snow Light Snow
1:31 AM 30.2 °F 26.7 °F 28.4 °F 93% 29.96 in 3.0 mi North 3.5 mph - 0.00 in Snow Light Snow
1:53 AM 30.9 °F 27.5 °F 28.0 °F 89% 29.98 in 6.0 mi NNE 3.5 mph - 0.00 in   Overcast
2:15 AM 30.2 °F 25.4 °F 28.4 °F 93% 29.97 in 5.0 mi North 4.6 mph - 0.00 in Snow Light Snow
2:35 AM 30.2 °F 26.7 °F 28.4 °F 93% 29.97 in 2.5 mi North 3.5 mph - 0.00 in   Overcast
2:43 AM 30.2 °F 25.4 °F 28.4 °F 93% 29.97 in 3.0 mi North 4.6 mph - 0.00 in Rain Light Freezing Rain
2:53 AM 30.9 °F 26.2 °F 28.9 °F 92% 29.97 in 3.0 mi North 4.6 mph - 0.00 in Snow Light Snow
3:05 AM 30.2 °F 24.3 °F 28.4 °F 93% 29.97 in 4.0 mi North 5.8 mph - 0.00 in   Overcast
3:13 AM 30.2 °F 26.7 °F 28.4 °F 93% 29.96 in 6.0 mi North 3.5 mph - 0.00 in   Overcast
3:46 AM 30.2 °F 25.4 °F 28.4 °F 93% 29.95 in 5.0 mi North 4.6 mph - 0.00 in Rain Light Freezing Rain
3:53 AM 30.9 °F 25.2 °F 28.9 °F 92% 29.96 in 5.0 mi North 5.8 mph - 0.00 in Rain Light Freezing Rain
4:51 AM 32.0 °F 24.8 °F 28.4 °F 87% 29.95 in 6.0 mi North 8.1 mph - 0.00 in   Overcast
4:53 AM 32.0 °F 24.8 °F 28.9 °F 88% 29.96 in 6.0 mi North 8.1 mph - 0.00 in   Overcast
5:06 AM 32.0 °F 25.6 °F 28.4 °F 87% 29.95 in 4.0 mi North 6.9 mph - 0.00 in Rain Light Freezing Rain
5:53 AM 32.0 °F 25.6 °F 28.9 °F 88% 29.97 in 3.0 mi North 6.9 mph - 0.02 in Rain Light Freezing Rain
6:53 AM 32.0 °F 24.8 °F 28.9 °F 88% 29.99 in 7.0 mi North 8.1 mph - 0.00 in Rain Light Freezing Rain
7:10 AM 32.0 °F 24.8 °F 28.4 °F 87% 29.98 in 10.0 mi North 8.1 mph - 0.00 in   Overcast
7:37 AM 30.2 °F 22.6 °F 28.4 °F 93% 29.99 in 5.0 mi North 8.1 mph - 0.00 in Rain Light Freezing Rain
7:53 AM 30.9 °F 24.3 °F 28.0 °F 89% 30.01 in 4.0 mi North 6.9 mph - 0.00 in Rain Light Freezing Rain
8:08 AM 30.2 °F 22.6 °F 28.4 °F 93% 30.01 in 4.0 mi NNE 8.1 mph - 0.00 in   Overcast
8:53 AM 30.9 °F 25.2 °F 28.0 °F 89% 30.04 in 6.0 mi North 5.8 mph - 0.00 in   Overcast
9:03 AM 30.2 °F 24.3 °F 28.4 °F 93% 30.04 in 7.0 mi NNW 5.8 mph - N/A   Overcast
9:53 AM 32.0 °F 24.8 °F 28.0 °F 85% 30.06 in 10.0 mi North 8.1 mph - N/A   Overcast
10:16 AM 32.0 °F 24.2 °F 28.4 °F 87% 30.05 in 10.0 mi NNE 9.2 mph - N/A   Overcast
10:53 AM 32.0 °F 25.6 °F 28.0 °F 85% 30.06 in 10.0 mi North 6.9 mph - N/A   Overcast
11:43 AM 33.8 °F 27.0 °F 28.4 °F 81% 30.04 in 10.0 mi North 8.1 mph - N/A   Overcast
11:53 AM 34.0 °F 26.6 °F 28.9 °F 82% 30.05 in 10.0 mi North 9.2 mph - N/A   Overcast
12:08 PM 33.8 °F 28.6 °F 28.4 °F 81% 30.04 in 10.0 mi North 5.8 mph - N/A   Overcast
12:37 PM 35.6 °F 29.2 °F 28.4 °F 75% 30.03 in 10.0 mi NNE 8.1 mph - N/A   Overcast
12:53 PM 35.1 °F 28.6 °F 30.0 °F 82% 30.04 in 10.0 mi NNE 8.1 mph - N/A   Overcast
1:21 PM 35.6 °F 29.9 °F 30.2 °F 81% 30.03 in 10.0 mi NNE 6.9 mph - N/A   Mostly Cloudy
1:53 PM 36.0 °F 33.3 °F 30.9 °F 82% 30.06 in 10.0 mi NNE 3.5 mph - N/A   Overcast
2:53 PM 37.9 °F 31.5 °F 28.0 °F 68% 30.09 in 10.0 mi NNW 9.2 mph 16.1 mph N/A   Overcast
3:49 PM 35.6 °F 27.5 °F 24.8 °F 65% 30.10 in 10.0 mi NW 11.5 mph - N/A   Scattered Clouds
3:53 PM 35.1 °F 25.9 °F 25.0 °F 67% 30.11 in 10.0 mi NW 13.8 mph 20.7 mph N/A   Partly Cloudy
4:53 PM 33.1 °F 23.9 °F 24.1 °F 70% 30.12 in 10.0 mi NW 12.7 mph - N/A   Clear
5:53 PM 32.0 °F 25.6 °F 23.0 °F 69% 30.17 in 10.0 mi NW 6.9 mph - N/A   Clear
6:53 PM 30.9 °F 27.5 °F 21.9 °F 69% 30.20 in 10.0 mi NW 3.5 mph - N/A   Clear
7:53 PM 30.9 °F 27.5 °F 21.0 °F 67% 30.21 in 10.0 mi North 3.5 mph - N/A   Clear
8:53 PM 30.0 °F 25.2 °F 21.9 °F 72% 30.22 in 10.0 mi North 4.6 mph - N/A   Clear
9:53 PM 30.0 °F 21.7 °F 21.9 °F 72% 30.23 in 10.0 mi NNW 9.2 mph - N/A   Clear
10:53 PM 28.9 °F 20.4 °F 21.9 °F 75% 30.25 in 10.0 mi North 9.2 mph - N/A   Clear
11:53 PM 28.9 °F 19.8 °F 21.0 °F 72% 30.25 in 10.0 mi NNW 10.4 mph - N/A   Clear